When you browse on this site, cookies collect data to enhance your experience and personalize the content and advertising you see.
Visit our Privacy Policy to learn more. By continuing to use the site, you agree to this use of cookies and data.
  • In Österreich
  • Länderverzeichnis
  • Für 7 Tage
  • Wassertemperatur
  • Satellitenkarten
  • Wetterkarte
  • News
  • Widgets
  • user-avatar
    Anmelden

    Stündliche Wetter Meknes

    Heute, 13 Dezember, Donnerstag

    Zeit Temperatur Niederschläge Wind Luftdruck Luftfeuchtigkeit
    00:00 +12°C° 0 mm 1 m/S 721 mmHg 83%
    01:00 +12°C° 0 mm 1 m/S 720 mmHg 83%
    02:00 +12°C° 0 mm 1 m/S 720 mmHg 83%
    03:00 +12°C° 0 mm 1 m/S 720 mmHg 83%
    04:00 +12°C° 0 mm 1 m/S 720 mmHg 81%
    05:00 +12°C° 0 mm 2 m/S 720 mmHg 79%
    06:00 +12°C° 0 mm 2 m/S 720 mmHg 77%
    07:00 +13°C° 0 mm 2 m/S 720 mmHg 74%
    08:00 +12°C° 0 mm 3 m/S 720 mmHg 71%
    09:00 +13°C° 0 mm 3 m/S 720 mmHg 67%
    10:00 +13°C° 0 mm 4 m/S 720 mmHg 65%
    11:00 +14°C° 0 mm 5 m/S 720 mmHg 62%
    12:00 +14°C° 0 mm 5 m/S 719 mmHg 60%
    13:00 +14°C° 0.3 mm 6 m/S 719 mmHg 64%
    14:00 +14°C° 0.3 mm 7 m/S 719 mmHg 67%
    15:00 +13°C° 0.3 mm 8 m/S 719 mmHg 71%
    16:00 +12°C° 1 mm 7 m/S 719 mmHg 77%
    17:00 +12°C° 1 mm 5 m/S 719 mmHg 82%
    18:00 +11°C° 1 mm 4 m/S 719 mmHg 87%
    19:00 +11°C° 0.2 mm 4 m/S 720 mmHg 86%
    20:00 +11°C° 0.2 mm 4 m/S 721 mmHg 86%
    21:00 +10°C° 0.2 mm 4 m/S 721 mmHg 85%
    22:00 +10°C° 0.1 mm 4 m/S 721 mmHg 85%
    23:00 +10°C° 0.1 mm 3 m/S 722 mmHg 84%

    Morgen, 14 Dezember, Freitag

    Zeit Temperatur Niederschläge Wind Luftdruck Luftfeuchtigkeit
    00:00 +10°C° 0.1 mm 3 m/S 722 mmHg 84%
    01:00 +9°C° 0 mm 3 m/S 722 mmHg 84%
    02:00 +9°C° 0 mm 3 m/S 721 mmHg 85%
    03:00 +9°C° 0 mm 2 m/S 721 mmHg 85%
    04:00 +9°C° 0.1 mm 2 m/S 721 mmHg 86%
    05:00 +9°C° 0.1 mm 2 m/S 722 mmHg 86%
    06:00 +9°C° 0.1 mm 2 m/S 722 mmHg 86%
    07:00 +9°C° 0.1 mm 2 m/S 722 mmHg 84%
    08:00 +9°C° 0.1 mm 2 m/S 723 mmHg 81%
    09:00 +11°C° 0.1 mm 1 m/S 724 mmHg 79%
    10:00 +12°C° 0 mm 2 m/S 724 mmHg 73%
    11:00 +13°C° 0 mm 2 m/S 724 mmHg 68%
    12:00 +13°C° 0 mm 2 m/S 724 mmHg 62%
    13:00 +14°C° 0 mm 2 m/S 723 mmHg 61%
    14:00 +13°C° 0 mm 3 m/S 723 mmHg 60%
    15:00 +13°C° 0 mm 3 m/S 723 mmHg 59%
    16:00 +13°C° 0 mm 2 m/S 723 mmHg 65%
    17:00 +12°C° 0 mm 2 m/S 723 mmHg 71%
    18:00 +11°C° 0 mm 1 m/S 723 mmHg 76%
    19:00 +11°C° 0 mm 1 m/S 723 mmHg 78%
    20:00 +10°C° 0 mm 1 m/S 724 mmHg 81%
    21:00 +9°C° 0 mm 0 m/S 724 mmHg 83%
    22:00 +9°C° 0 mm 0 m/S 724 mmHg 82%
    23:00 +9°C° 0 mm 1 m/S 723 mmHg 81%

    übermorgen, 15 Dezember, Samstag

    Zeit Temperatur Niederschläge Wind Luftdruck Luftfeuchtigkeit
    00:00 +9°C° 0 mm 1 m/S 723 mmHg 81%
    01:00 +9°C° 0 mm 1 m/S 723 mmHg 81%
    02:00 +9°C° 0 mm 1 m/S 723 mmHg 81%
    03:00 +8°C° 0 mm 1 m/S 722 mmHg 81%
    04:00 +8°C° 0 mm 1 m/S 722 mmHg 80%
    05:00 +8°C° 0 mm 1 m/S 722 mmHg 80%
    06:00 +8°C° 0 mm 1 m/S 722 mmHg 79%
    07:00 +9°C° 0 mm 1 m/S 722 mmHg 76%
    08:00 +10°C° 0 mm 1 m/S 723 mmHg 73%
    09:00 +11°C° 0 mm 1 m/S 723 mmHg 70%
    10:00 +13°C° 0 mm 1 m/S 723 mmHg 63%
    11:00 +14°C° 0 mm 1 m/S 723 mmHg 56%
    12:00 +16°C° 0 mm 1 m/S 723 mmHg 49%
    13:00 +18°C° 0 mm 1 m/S 723 mmHg 48%
    14:00 +18°C° 0 mm 1 m/S 723 mmHg 47%
    15:00 +18°C° 0 mm 1 m/S 722 mmHg 46%
    16:00 +16°C° 0 mm 1 m/S 722 mmHg 53%
    17:00 +14°C° 0 mm 1 m/S 722 mmHg 60%
    18:00 +12°C° 0 mm 0 m/S 722 mmHg 67%
    19:00 +11°C° 0 mm 0 m/S 723 mmHg 67%
    20:00 +11°C° 0 mm 0 m/S 723 mmHg 67%
    21:00 +11°C° 0 mm 0 m/S 723 mmHg 67%
    22:00 +11°C° 0 mm 0 m/S 723 mmHg 65%
    23:00 +10°C° 0 mm 0 m/S 723 mmHg 64%

    16 Dezember, Sonntag

    Zeit Temperatur Niederschläge Wind Luftdruck Luftfeuchtigkeit
    00:00 +10°C° 0 mm 0 m/S 723 mmHg 62%
    01:00 +10°C° 0 mm 0 m/S 723 mmHg 62%
    02:00 +10°C° 0 mm 0 m/S 722 mmHg 62%
    03:00 +10°C° 0 mm 0 m/S 722 mmHg 62%
    04:00 +9°C° 0 mm 0 m/S 722 mmHg 62%
    05:00 +9°C° 0 mm 0 m/S 722 mmHg 62%
    06:00 +9°C° 0 mm 0 m/S 722 mmHg 62%
    07:00 +10°C° 0 mm 0 m/S 723 mmHg 59%
    08:00 +11°C° 0 mm 0 m/S 723 mmHg 56%
    09:00 +14°C° 0 mm 1 m/S 724 mmHg 53%
    10:00 +15°C° 0 mm 1 m/S 724 mmHg 48%
    11:00 +18°C° 0 mm 1 m/S 724 mmHg 43%
    12:00 +19°C° 0 mm 1 m/S 724 mmHg 38%
    13:00 +20°C° 0 mm 1 m/S 723 mmHg 39%
    14:00 +19°C° 0 mm 2 m/S 723 mmHg 40%
    15:00 +19°C° 0 mm 2 m/S 723 mmHg 41%
    16:00 +17°C° 0 mm 2 m/S 723 mmHg 49%
    17:00 +15°C° 0 mm 1 m/S 723 mmHg 57%
    18:00 +14°C° 0 mm 1 m/S 723 mmHg 64%
    19:00 +13°C° 0 mm 1 m/S 724 mmHg 67%
    20:00 +12°C° 0 mm 0 m/S 724 mmHg 70%
    21:00 +11°C° 0 mm 0 m/S 724 mmHg 73%
    22:00 +11°C° 0 mm 0 m/S 724 mmHg 74%
    23:00 +11°C° 0 mm 0 m/S 724 mmHg 74%

    17 Dezember, Montag

    Zeit Temperatur Niederschläge Wind Luftdruck Luftfeuchtigkeit
    00:00 +10°C° 0 mm 0 m/S 724 mmHg 75%
    01:00 +10°C° 0 mm 0 m/S 724 mmHg 75%
    02:00 +10°C° 0 mm 0 m/S 723 mmHg 74%
    03:00 +10°C° 0 mm 0 m/S 723 mmHg 74%
    04:00 +10°C° 0 mm 0 m/S 723 mmHg 74%
    05:00 +9°C° 0 mm 0 m/S 723 mmHg 74%
    06:00 +10°C° 0 mm 1 m/S 722 mmHg 74%
    07:00 +11°C° 0 mm 1 m/S 723 mmHg 70%
    08:00 +13°C° 0 mm 1 m/S 723 mmHg 67%
    09:00 +14°C° 0 mm 1 m/S 724 mmHg 63%
    10:00 +15°C° 0 mm 1 m/S 724 mmHg 59%
    11:00 +18°C° 0 mm 1 m/S 723 mmHg 55%
    12:00 +19°C° 0 mm 1 m/S 723 mmHg 51%
    13:00 +19°C° 0 mm 1 m/S 723 mmHg 52%
    14:00 +18°C° 0 mm 2 m/S 722 mmHg 53%
    15:00 +19°C° 0 mm 2 m/S 722 mmHg 54%
    16:00 +18°C° 0 mm 1 m/S 722 mmHg 60%
    17:00 +16°C° 0 mm 1 m/S 722 mmHg 66%
    18:00 +14°C° 0 mm 1 m/S 722 mmHg 73%
    19:00 +14°C° 0 mm 1 m/S 722 mmHg 74%
    20:00 +12°C° 0 mm 0 m/S 723 mmHg 75%
    21:00 +12°C° 0 mm 0 m/S 723 mmHg 76%
    22:00 +12°C° 0 mm 0 m/S 723 mmHg 74%
    23:00 +13°C° 0 mm 1 m/S 722 mmHg 72%

    18 Dezember, Dienstag

    Zeit Temperatur Niederschläge Wind Luftdruck Luftfeuchtigkeit
    00:00 +13°C° 0 mm 1 m/S 722 mmHg 70%
    01:00 +12°C° 0 mm 1 m/S 722 mmHg 68%
    02:00 +12°C° 0 mm 1 m/S 721 mmHg 66%
    03:00 +12°C° 0 mm 1 m/S 721 mmHg 64%
    04:00 +12°C° 0 mm 1 m/S 721 mmHg 64%
    05:00 +11°C° 0 mm 0 m/S 721 mmHg 63%
    06:00 +10°C° 0 mm 0 m/S 721 mmHg 62%
    07:00 +13°C° 0 mm 1 m/S 721 mmHg 58%
    08:00 +14°C° 0 mm 1 m/S 722 mmHg 54%
    09:00 +15°C° 0 mm 1 m/S 722 mmHg 51%
    10:00 +18°C° 0 mm 1 m/S 722 mmHg 45%
    11:00 +19°C° 0 mm 2 m/S 722 mmHg 39%
    12:00 +21°C° 0 mm 2 m/S 722 mmHg 34%
    13:00 +21°C° 0 mm 2 m/S 722 mmHg 34%
    14:00 +21°C° 0 mm 2 m/S 722 mmHg 34%
    15:00 +21°C° 0 mm 2 m/S 721 mmHg 35%
    16:00 +19°C° 0 mm 2 m/S 721 mmHg 42%
    17:00 +18°C° 0 mm 1 m/S 721 mmHg 49%
    18:00 +15°C° 0 mm 1 m/S 721 mmHg 55%
    19:00 +15°C° 0 mm 1 m/S 721 mmHg 55%
    20:00 +15°C° 0 mm 1 m/S 721 mmHg 54%
    21:00 +14°C° 0 mm 1 m/S 721 mmHg 53%
    22:00 +14°C° 0 mm 1 m/S 721 mmHg 52%
    23:00 +14°C° 0 mm 1 m/S 721 mmHg 51%
    Mehr zeigen